User: anonymous   Login
Location: Knowlton
(51.2333°N, 1.2667°E)
Time: 08:25:27
(UTC+00:00)
Language:

NOSS 7 (H) - Orbit

View from above orbital plane
View from above orbital plane
View from above satellite
View from above satellite

Ground track
Ground track

The orbit data is extracted from the following two-line orbital elements,

1 16631U 86014H   21166.88760828  .00001771  00000-0  13093-3 0  9994
2 16631  63.2940 319.1074 0952798  76.0765 294.4260 13.48792606 94476
Epoch (UTC): 15 June 2021 21:18:09
Eccentricity: 0.0952798
inclination: 63.2940°
perigee height: 366 km
apogee height: 1787 km
right ascension of ascending node: 319.1074°
argument of perigee: 76.0765°
revolutions per day: 13.48792606
mean anomaly at epoch: 294.4260°
orbit number at epoch: 9447

The dashed part of the orbit path shows where the satellite is in the earth's shadow,  

DLR